Back to catalog

STARLINK-36782

AliveCommunicationsSSO
NORAD 67805·PAYLOAD·🇺🇸 United States

Launched Feb 15, 2026 from Vandenberg Space Force Base

Loading…

Next Passes (next 24 hours)

TLE

FreshSource: CelesTrak SupGP

Epoch: Sep 14, 2026, 23:09 UTC

1 67805C 26032J   26257.96506944  .00065578  00000+0  20358-2 0  2571
2 67805  97.2856  84.4775 0001690  94.6209  91.2226 15.33403330    14

Track STARLINK-36782 in real time with AllMySat

Download on the App Store